Year,Month,Day,Hour,Minute,Value (Times are PST for temperature in C)
2011,03,26,00,00,2.10
2011,03,26,00,01,2.00
2011,03,26,00,02,2.00
2011,03,26,00,03,2.00
2011,03,26,00,04,2.00
2011,03,26,00,05,1.90
2011,03,26,00,06,1.90
2011,03,26,00,07,1.90
2011,03,26,00,08,1.90
2011,03,26,00,09,1.90
2011,03,26,00,10,1.90
2011,03,26,00,11,1.90
2011,03,26,00,12,1.90
2011,03,26,00,13,1.90
2011,03,26,00,14,1.90
2011,03,26,00,15,2.00
2011,03,26,00,16,2.00
2011,03,26,00,17,2.00
2011,03,26,00,18,2.00
2011,03,26,00,19,2.00
2011,03,26,00,20,2.00
2011,03,26,00,21,2.00
2011,03,26,00,22,1.90
2011,03,26,00,23,1.90
2011,03,26,00,24,1.90
2011,03,26,00,25,1.90
2011,03,26,00,26,1.90
2011,03,26,00,27,1.90
2011,03,26,00,28,1.90
2011,03,26,00,29,1.90
2011,03,26,00,30,1.90
2011,03,26,00,31,1.90
2011,03,26,00,32,1.90
2011,03,26,00,33,1.90
2011,03,26,00,34,2.00
2011,03,26,00,35,2.00
2011,03,26,00,36,2.00
2011,03,26,00,37,2.00
2011,03,26,00,38,2.00
2011,03,26,00,39,2.00
2011,03,26,00,40,2.00
2011,03,26,00,41,2.00
2011,03,26,00,42,2.00
2011,03,26,00,43,2.00
2011,03,26,00,44,2.00
2011,03,26,00,45,2.00
2011,03,26,00,46,2.00
2011,03,26,00,47,2.00
2011,03,26,00,48,2.00
2011,03,26,00,49,2.00
2011,03,26,00,50,2.00
2011,03,26,00,51,2.00
2011,03,26,00,52,2.00
2011,03,26,00,53,2.10
2011,03,26,00,54,2.10
2011,03,26,00,55,2.10
2011,03,26,00,56,2.10
2011,03,26,00,57,2.10
2011,03,26,00,58,2.10
2011,03,26,00,59,2.10
2011,03,26,01,00,2.10
2011,03,26,01,01,2.10
2011,03,26,01,02,2.10
2011,03,26,01,03,2.10
2011,03,26,01,04,2.10
2011,03,26,01,05,2.10
2011,03,26,01,06,2.20
2011,03,26,01,07,2.20
2011,03,26,01,08,2.20
2011,03,26,01,09,2.20
2011,03,26,01,10,2.20
2011,03,26,01,11,2.20
2011,03,26,01,12,2.20
2011,03,26,01,13,2.20
2011,03,26,01,14,2.20
2011,03,26,01,15,2.20
2011,03,26,01,16,2.20
2011,03,26,01,17,2.20
2011,03,26,01,18,2.20
2011,03,26,01,19,2.20
2011,03,26,01,20,2.20
2011,03,26,01,21,2.20
2011,03,26,01,22,2.20
2011,03,26,01,23,2.20
2011,03,26,01,24,2.20
2011,03,26,01,25,2.20
2011,03,26,01,26,2.20
2011,03,26,01,27,2.30
2011,03,26,01,28,2.30
2011,03,26,01,29,2.30
2011,03,26,01,30,2.30
2011,03,26,01,31,2.30
2011,03,26,01,32,2.30
2011,03,26,01,33,2.30
2011,03,26,01,34,2.30
2011,03,26,01,35,2.30
2011,03,26,01,36,2.30
2011,03,26,01,37,2.30
2011,03,26,01,38,2.30
2011,03,26,01,39,2.30
2011,03,26,01,40,2.30
2011,03,26,01,41,2.30
2011,03,26,01,42,2.30
2011,03,26,01,43,2.40
2011,03,26,01,44,2.40
2011,03,26,01,45,2.30
2011,03,26,01,46,2.30
2011,03,26,01,47,2.30
2011,03,26,01,48,2.30
2011,03,26,01,49,2.30
2011,03,26,01,50,2.30
2011,03,26,01,51,2.30
2011,03,26,01,52,2.30
2011,03,26,01,53,2.30
2011,03,26,01,54,2.30
2011,03,26,01,55,2.30
2011,03,26,01,56,2.30
2011,03,26,01,57,2.30
2011,03,26,01,58,2.30
2011,03,26,01,59,2.30
2011,03,26,02,00,2.30
2011,03,26,02,01,2.30
2011,03,26,02,02,2.30
2011,03,26,02,03,2.30
2011,03,26,02,04,2.30
2011,03,26,02,05,2.30
2011,03,26,02,06,2.30
2011,03,26,02,07,2.30
2011,03,26,02,08,2.30
2011,03,26,02,09,2.30
2011,03,26,02,10,2.30
2011,03,26,02,11,2.30
2011,03,26,02,12,2.30
2011,03,26,02,13,2.30
2011,03,26,02,14,2.30
2011,03,26,02,15,2.40
2011,03,26,02,16,2.40
2011,03,26,02,17,2.50
2011,03,26,02,18,2.50
2011,03,26,02,19,2.60
2011,03,26,02,20,2.60
2011,03,26,02,21,2.70
2011,03,26,02,22,2.70
2011,03,26,02,23,2.80
2011,03,26,02,24,2.80
2011,03,26,02,25,2.90
2011,03,26,02,26,2.90
2011,03,26,02,27,3.00
2011,03,26,02,28,3.00
2011,03,26,02,29,3.10
2011,03,26,02,30,3.20
2011,03,26,02,31,3.20
2011,03,26,02,32,3.20
2011,03,26,02,33,3.20
2011,03,26,02,34,3.30
2011,03,26,02,35,3.30
2011,03,26,02,36,3.30
2011,03,26,02,37,3.30
2011,03,26,02,38,3.30
2011,03,26,02,39,3.40
2011,03,26,02,40,3.40
2011,03,26,02,41,3.40
2011,03,26,02,42,3.40
2011,03,26,02,43,3.40
2011,03,26,02,44,3.50
2011,03,26,02,45,3.50
2011,03,26,02,46,3.50
2011,03,26,02,47,3.50
2011,03,26,02,48,3.50
2011,03,26,02,49,3.60
2011,03,26,02,50,3.60
2011,03,26,02,51,3.60
2011,03,26,02,52,3.60
2011,03,26,02,53,3.60
2011,03,26,02,54,3.60
2011,03,26,02,55,3.60
2011,03,26,02,56,3.60
2011,03,26,02,57,3.60
2011,03,26,02,58,3.60
2011,03,26,02,59,3.60
2011,03,26,03,00,3.60
2011,03,26,03,01,3.60
2011,03,26,03,02,3.60
2011,03,26,03,03,3.60
2011,03,26,03,06,3.60
2011,03,26,03,07,3.60
2011,03,26,03,08,3.60
2011,03,26,03,09,3.60
2011,03,26,03,10,3.60
2011,03,26,03,11,3.60
2011,03,26,03,12,3.60
2011,03,26,03,13,3.70
2011,03,26,03,14,3.70
2011,03,26,03,15,3.70
2011,03,26,03,16,3.80
2011,03,26,03,17,3.80
2011,03,26,03,18,3.80
2011,03,26,03,19,3.80
2011,03,26,03,20,3.80
2011,03,26,03,21,3.80
2011,03,26,03,22,3.80
2011,03,26,03,23,3.80
2011,03,26,03,24,3.80
2011,03,26,03,25,3.80
2011,03,26,03,26,3.80
2011,03,26,03,27,3.80
2011,03,26,03,28,3.80
2011,03,26,03,29,3.80
2011,03,26,03,30,3.80
2011,03,26,03,31,3.80
2011,03,26,03,32,3.80
2011,03,26,03,33,3.80
2011,03,26,03,34,3.80
2011,03,26,03,35,3.80
2011,03,26,03,36,3.80
2011,03,26,03,37,3.80
2011,03,26,03,38,3.80
2011,03,26,03,39,3.80
2011,03,26,03,40,3.80
2011,03,26,03,41,3.80
2011,03,26,03,42,3.80
2011,03,26,03,43,3.80
2011,03,26,03,44,3.80
2011,03,26,03,45,3.90
2011,03,26,03,46,3.90
2011,03,26,03,47,3.90
2011,03,26,03,48,3.90
2011,03,26,03,49,4.00
2011,03,26,03,50,4.00
2011,03,26,03,51,4.10
2011,03,26,03,52,4.10
2011,03,26,03,53,4.10
2011,03,26,03,54,4.10
2011,03,26,03,55,4.10
2011,03,26,03,56,4.20
2011,03,26,03,57,4.20
2011,03,26,03,58,4.20
2011,03,26,03,59,4.20
2011,03,26,04,00,4.30
2011,03,26,04,01,4.30
2011,03,26,04,02,4.30
2011,03,26,04,03,4.30
2011,03,26,04,04,4.40
2011,03,26,04,05,4.40
2011,03,26,04,06,4.40
2011,03,26,04,07,4.40
2011,03,26,04,08,4.40
2011,03,26,04,09,4.50
2011,03,26,04,10,4.50
2011,03,26,04,11,4.50
2011,03,26,04,12,4.50
2011,03,26,04,13,4.50
2011,03,26,04,14,4.60
2011,03,26,04,15,4.60
2011,03,26,04,16,4.60
2011,03,26,04,17,4.60
2011,03,26,04,18,4.60
2011,03,26,04,19,4.60
2011,03,26,04,20,4.60
2011,03,26,04,21,4.70
2011,03,26,04,22,4.70
2011,03,26,04,23,4.70
2011,03,26,04,24,4.70
2011,03,26,04,25,4.70
2011,03,26,04,26,4.70
2011,03,26,04,27,4.70
2011,03,26,04,28,4.70
2011,03,26,04,29,4.70
2011,03,26,04,30,4.80
2011,03,26,04,31,4.80
2011,03,26,04,32,4.80
2011,03,26,04,33,4.80
2011,03,26,04,34,4.80
2011,03,26,04,35,4.80
2011,03,26,04,36,4.90
2011,03,26,04,37,4.90
2011,03,26,04,38,4.90
2011,03,26,04,39,4.90
2011,03,26,04,40,4.90
2011,03,26,04,41,4.90
2011,03,26,04,42,4.90
2011,03,26,04,43,4.90
2011,03,26,04,44,4.90
2011,03,26,04,45,5.00
2011,03,26,04,46,5.00
2011,03,26,04,47,5.00
2011,03,26,04,48,5.00
2011,03,26,04,49,5.10
2011,03,26,04,50,5.10
2011,03,26,04,51,5.10
2011,03,26,04,52,5.10
2011,03,26,04,53,5.20
2011,03,26,04,54,5.20
2011,03,26,04,55,5.20
2011,03,26,04,56,5.30
2011,03,26,04,57,5.30
2011,03,26,04,58,5.30
2011,03,26,04,59,5.30
2011,03,26,05,00,5.30
2011,03,26,05,01,5.30
2011,03,26,05,02,5.40
2011,03,26,05,03,5.40
2011,03,26,05,04,5.40
2011,03,26,05,05,5.40
2011,03,26,05,06,5.40
2011,03,26,05,07,5.40
2011,03,26,05,08,5.40
2011,03,26,05,09,5.40
2011,03,26,05,10,5.50
2011,03,26,05,11,5.50
2011,03,26,05,12,5.50
2011,03,26,05,13,5.50
2011,03,26,05,14,5.50
2011,03,26,05,15,5.50
2011,03,26,05,16,5.50
2011,03,26,05,17,5.50
2011,03,26,05,18,5.50
2011,03,26,05,19,5.50
2011,03,26,05,20,5.50
2011,03,26,05,21,5.50
2011,03,26,05,22,5.50
2011,03,26,05,23,5.50
2011,03,26,05,24,5.50
2011,03,26,05,25,5.50
2011,03,26,05,26,5.50
2011,03,26,05,27,5.50
2011,03,26,05,28,5.50
2011,03,26,05,29,5.50
2011,03,26,05,30,5.50
2011,03,26,05,31,5.50
2011,03,26,05,32,5.50
2011,03,26,05,33,5.50
2011,03,26,05,34,5.50
2011,03,26,05,35,5.40
2011,03,26,05,36,5.40
2011,03,26,05,37,5.40
2011,03,26,05,38,5.40
2011,03,26,05,39,5.40
2011,03,26,05,40,5.40
2011,03,26,05,41,5.40
2011,03,26,05,42,5.40
2011,03,26,05,43,5.40
2011,03,26,05,44,5.40
2011,03,26,05,45,5.40
2011,03,26,05,46,5.40
2011,03,26,05,47,5.40
2011,03,26,05,48,5.40
2011,03,26,05,49,5.40
2011,03,26,05,50,5.40
2011,03,26,05,51,5.40
2011,03,26,05,52,5.40
2011,03,26,05,53,5.40
2011,03,26,05,54,5.40
2011,03,26,05,55,5.40
2011,03,26,05,56,5.40
2011,03,26,05,57,5.40
2011,03,26,05,58,5.40
2011,03,26,05,59,5.40
2011,03,26,06,00,5.30
2011,03,26,06,01,5.30
2011,03,26,06,02,5.30
2011,03,26,06,03,5.30
2011,03,26,06,04,5.30
2011,03,26,06,05,5.20
2011,03,26,06,06,5.20
2011,03,26,06,07,5.20
2011,03,26,06,08,5.20
2011,03,26,06,09,5.20
2011,03,26,06,10,5.20
2011,03,26,06,11,5.20
2011,03,26,06,12,5.20
2011,03,26,06,13,5.20
2011,03,26,06,14,5.20
2011,03,26,06,15,5.20
2011,03,26,06,16,5.10
2011,03,26,06,17,5.10
2011,03,26,06,18,5.10
2011,03,26,06,19,5.10
2011,03,26,06,20,5.10
2011,03,26,06,21,5.10
2011,03,26,06,22,5.10
2011,03,26,06,23,5.10
2011,03,26,06,24,5.10
2011,03,26,06,25,5.10
2011,03,26,06,26,5.10
2011,03,26,06,27,5.10
2011,03,26,06,28,5.10
2011,03,26,06,29,5.10
2011,03,26,06,30,5.10
2011,03,26,06,31,5.10
2011,03,26,06,32,5.10
2011,03,26,06,33,5.10
2011,03,26,06,34,5.10
2011,03,26,06,35,5.10
2011,03,26,06,36,5.10
2011,03,26,06,37,5.10
2011,03,26,06,38,5.10
2011,03,26,06,39,5.10
2011,03,26,06,40,5.10
2011,03,26,06,41,5.10
2011,03,26,06,42,5.10
2011,03,26,06,43,5.10
2011,03,26,06,44,5.00
2011,03,26,06,45,5.00
2011,03,26,06,46,5.00
2011,03,26,06,47,4.90
2011,03,26,06,48,4.90
2011,03,26,06,49,4.90
2011,03,26,06,50,4.80
2011,03,26,06,51,4.80
2011,03,26,06,52,4.80
2011,03,26,06,53,4.80
2011,03,26,06,54,4.80
2011,03,26,06,55,4.80
2011,03,26,06,56,4.80
2011,03,26,06,57,4.80
2011,03,26,06,58,4.80
2011,03,26,06,59,4.80
2011,03,26,07,00,4.80
2011,03,26,07,01,4.80
2011,03,26,07,02,4.80
2011,03,26,07,03,4.80
2011,03,26,07,04,4.80
2011,03,26,07,05,4.90
2011,03,26,07,06,4.90
2011,03,26,07,07,4.90
2011,03,26,07,08,4.90
2011,03,26,07,09,4.90
2011,03,26,07,10,4.90
2011,03,26,07,11,4.90
2011,03,26,07,12,4.90
2011,03,26,07,13,4.90
2011,03,26,07,14,4.90
2011,03,26,07,15,4.90
2011,03,26,07,16,5.00
2011,03,26,07,17,5.00
2011,03,26,07,18,5.00
2011,03,26,07,19,5.00
2011,03,26,07,20,5.00
2011,03,26,07,21,5.00
2011,03,26,07,22,5.00
2011,03,26,07,23,5.00
2011,03,26,07,24,5.00
2011,03,26,07,25,5.00
2011,03,26,07,26,5.00
2011,03,26,07,27,5.00
2011,03,26,07,28,5.00
2011,03,26,07,29,4.90
2011,03,26,07,30,4.90
2011,03,26,07,31,4.90
2011,03,26,07,32,4.90
2011,03,26,07,33,5.00
2011,03,26,07,34,5.00
2011,03,26,07,35,5.00
2011,03,26,07,36,5.00
2011,03,26,07,37,5.00
2011,03,26,07,38,5.00
2011,03,26,07,39,5.00
2011,03,26,07,40,5.00
2011,03,26,07,41,5.00
2011,03,26,07,42,5.00
2011,03,26,07,43,5.00
2011,03,26,07,44,5.00
2011,03,26,07,45,5.00
2011,03,26,07,46,5.00
2011,03,26,07,47,5.00
2011,03,26,07,48,5.00
2011,03,26,07,49,5.00
2011,03,26,07,50,5.00
2011,03,26,07,51,5.00
2011,03,26,07,52,5.00
2011,03,26,07,53,5.10
2011,03,26,07,54,5.10
2011,03,26,07,55,5.10
2011,03,26,07,56,5.10
2011,03,26,07,57,5.20
2011,03,26,07,58,5.30
2011,03,26,07,59,5.40
2011,03,26,08,00,5.50
2011,03,26,08,01,5.50
2011,03,26,08,02,5.60
2011,03,26,08,03,5.60
2011,03,26,08,04,5.60
2011,03,26,08,05,5.60
2011,03,26,08,06,5.60
2011,03,26,08,07,5.60
2011,03,26,08,08,5.60
2011,03,26,08,09,5.60
2011,03,26,08,10,5.70
2011,03,26,08,11,5.70
2011,03,26,08,12,5.80
2011,03,26,08,13,5.90
2011,03,26,08,14,6.00
2011,03,26,08,15,6.10
2011,03,26,08,16,6.20
2011,03,26,08,17,6.30
2011,03,26,08,18,6.30
2011,03,26,08,19,6.40
2011,03,26,08,20,6.50
2011,03,26,08,21,6.60
2011,03,26,08,22,6.70
2011,03,26,08,23,6.70
2011,03,26,08,24,6.70
2011,03,26,08,25,6.70
2011,03,26,08,26,6.70
2011,03,26,08,27,6.70
2011,03,26,08,28,6.80
2011,03,26,08,29,6.80
2011,03,26,08,30,6.80
2011,03,26,08,31,6.80
2011,03,26,08,32,6.90
2011,03,26,08,33,6.90
2011,03,26,08,34,7.00
2011,03,26,08,35,7.00
2011,03,26,08,36,7.00
2011,03,26,08,37,7.10
2011,03,26,08,38,7.10
2011,03,26,08,39,7.10
2011,03,26,08,40,7.20
2011,03,26,08,41,7.20
2011,03,26,08,42,7.20
2011,03,26,08,43,7.20
2011,03,26,08,44,7.20
2011,03,26,08,45,7.20
2011,03,26,08,46,7.30
2011,03,26,08,47,7.30
2011,03,26,08,48,7.30
2011,03,26,08,49,7.30
2011,03,26,08,50,7.30
2011,03,26,08,51,7.30
2011,03,26,08,52,7.30
2011,03,26,08,53,7.30
2011,03,26,08,54,7.40
2011,03,26,08,55,7.40
2011,03,26,08,56,7.40
2011,03,26,08,57,7.40
2011,03,26,08,58,7.40
2011,03,26,08,59,7.50
2011,03,26,09,00,7.50
2011,03,26,09,01,7.60
2011,03,26,09,02,7.60
2011,03,26,09,03,7.70
2011,03,26,09,04,7.70
2011,03,26,09,05,7.80
2011,03,26,09,06,7.80
2011,03,26,09,07,7.80
2011,03,26,09,08,7.90
2011,03,26,09,09,7.90
2011,03,26,09,10,7.90
2011,03,26,09,11,8.00
2011,03,26,09,12,8.00
2011,03,26,09,13,8.10
2011,03,26,09,14,8.10
2011,03,26,09,15,8.10
2011,03,26,09,16,8.20
2011,03,26,09,17,8.20
2011,03,26,09,18,8.30
2011,03,26,09,19,8.30
2011,03,26,09,20,8.30
2011,03,26,09,21,8.30
2011,03,26,09,22,8.30
2011,03,26,09,23,8.20
2011,03,26,09,24,8.20
2011,03,26,09,25,8.20
2011,03,26,09,26,8.20
2011,03,26,09,27,8.20
2011,03,26,09,28,8.20
2011,03,26,09,29,8.20
2011,03,26,09,30,8.20
2011,03,26,09,31,8.20
2011,03,26,09,32,8.20
2011,03,26,09,33,8.30
2011,03,26,09,34,8.40
2011,03,26,09,35,8.50
2011,03,26,09,36,8.60
2011,03,26,09,37,8.60
2011,03,26,09,38,8.60
2011,03,26,09,39,8.60
2011,03,26,09,40,8.70
2011,03,26,09,41,8.70
2011,03,26,09,42,8.80
2011,03,26,09,43,8.80
2011,03,26,09,44,8.90
2011,03,26,09,45,9.00
2011,03,26,09,46,9.10
2011,03,26,09,47,9.10
2011,03,26,09,48,9.20
2011,03,26,09,49,9.20
2011,03,26,09,50,9.30
2011,03,26,09,51,9.30
2011,03,26,09,52,9.30
2011,03,26,09,53,9.30
2011,03,26,09,54,9.40
2011,03,26,09,55,9.30
2011,03,26,09,56,9.30
2011,03,26,09,57,9.30
2011,03,26,09,58,9.30
2011,03,26,09,59,9.30
2011,03,26,10,00,9.30
2011,03,26,10,01,9.30
2011,03,26,10,02,9.30
2011,03,26,10,03,9.30
2011,03,26,10,04,9.20
2011,03,26,10,05,9.30
2011,03,26,10,06,9.30
2011,03,26,10,07,9.30
2011,03,26,10,08,9.30
2011,03,26,10,09,9.40
2011,03,26,10,10,9.40
2011,03,26,10,11,9.30
2011,03,26,10,12,9.30
2011,03,26,10,13,9.20
2011,03,26,10,14,9.20
2011,03,26,10,15,9.10
2011,03,26,10,16,9.10
2011,03,26,10,17,9.10
2011,03,26,10,18,9.10
2011,03,26,10,19,9.10
2011,03,26,10,20,9.20
2011,03,26,10,21,9.20
2011,03,26,10,22,9.30
2011,03,26,10,23,9.40
2011,03,26,10,24,9.40
2011,03,26,10,25,9.50
2011,03,26,10,26,9.50
2011,03,26,10,27,9.50
2011,03,26,10,28,9.50
2011,03,26,10,29,9.40
2011,03,26,10,30,9.40
2011,03,26,10,31,9.50
2011,03,26,10,32,9.60
2011,03,26,10,33,9.60
2011,03,26,10,34,9.60
2011,03,26,10,35,9.60
2011,03,26,10,36,9.60
2011,03,26,10,37,9.70
2011,03,26,10,38,9.70
2011,03,26,10,39,9.80
2011,03,26,10,40,9.80
2011,03,26,10,41,9.90
2011,03,26,10,42,9.90
2011,03,26,10,43,9.90
2011,03,26,10,44,9.90
2011,03,26,10,45,9.90
2011,03,26,10,46,9.90
2011,03,26,10,47,9.90
2011,03,26,10,48,9.90
2011,03,26,10,49,9.90
2011,03,26,10,50,9.90
2011,03,26,10,51,10.00
2011,03,26,10,52,10.00
2011,03,26,10,53,10.00
2011,03,26,10,54,9.90
2011,03,26,10,55,9.80
2011,03,26,10,56,9.80
2011,03,26,10,57,9.80
2011,03,26,10,58,9.70
2011,03,26,10,59,9.70
2011,03,26,11,00,9.60
2011,03,26,11,01,9.60
2011,03,26,11,02,9.50
2011,03,26,11,03,9.40
2011,03,26,11,04,9.40
2011,03,26,11,05,9.40
2011,03,26,11,06,9.30
2011,03,26,11,07,9.30
2011,03,26,11,08,9.40
2011,03,26,11,09,9.40
2011,03,26,11,10,9.40
2011,03,26,11,11,9.40
2011,03,26,11,12,9.30
2011,03,26,11,13,9.30
2011,03,26,11,14,9.30
2011,03,26,11,15,9.30
2011,03,26,11,16,9.30
2011,03,26,11,17,9.30
2011,03,26,11,18,9.30
2011,03,26,11,19,9.30
2011,03,26,11,20,9.30
2011,03,26,11,21,9.30
2011,03,26,11,22,9.30
2011,03,26,11,23,9.30
2011,03,26,11,24,9.30
2011,03,26,11,25,9.40
2011,03,26,11,26,9.40
2011,03,26,11,27,9.40
2011,03,26,11,28,9.40
2011,03,26,11,29,9.40
2011,03,26,11,30,9.50
2011,03,26,11,31,9.50
2011,03,26,11,32,9.60
2011,03,26,11,33,9.60
2011,03,26,11,34,9.70
2011,03,26,11,35,9.70
2011,03,26,11,36,9.80
2011,03,26,11,37,9.80
2011,03,26,11,38,9.80
2011,03,26,11,39,9.80
2011,03,26,11,40,9.70
2011,03,26,11,41,9.70
2011,03,26,11,42,9.80
2011,03,26,11,43,9.80
2011,03,26,11,44,9.80
2011,03,26,11,45,9.80
2011,03,26,11,46,9.80
2011,03,26,11,47,9.80
2011,03,26,11,48,9.80
2011,03,26,11,49,9.90
2011,03,26,11,50,9.90
2011,03,26,11,51,9.90
2011,03,26,11,52,10.00
2011,03,26,11,53,10.10
2011,03,26,11,54,10.10
2011,03,26,11,55,10.20
2011,03,26,11,56,10.20
2011,03,26,11,57,10.30
2011,03,26,11,58,10.30
2011,03,26,11,59,10.40
2011,03,26,12,00,10.30
2011,03,26,12,01,10.30
2011,03,26,12,02,10.30
2011,03,26,12,03,10.30
2011,03,26,12,04,10.20
2011,03,26,12,05,10.20
2011,03,26,12,06,10.20
2011,03,26,12,07,10.10
2011,03,26,12,08,10.00
2011,03,26,12,09,9.90
2011,03,26,12,10,9.90
2011,03,26,12,11,9.80
2011,03,26,12,12,9.80
2011,03,26,12,13,9.90
2011,03,26,12,14,9.90
2011,03,26,12,15,9.90
2011,03,26,12,16,10.00
2011,03,26,12,17,10.00
2011,03,26,12,18,10.00
2011,03,26,12,19,10.00
2011,03,26,12,20,10.00
2011,03,26,12,21,9.90
2011,03,26,12,22,9.90
2011,03,26,12,23,9.90
2011,03,26,12,24,9.90
2011,03,26,12,25,9.90
2011,03,26,12,26,9.90
2011,03,26,12,27,9.90
2011,03,26,12,28,9.90
2011,03,26,12,29,9.90
2011,03,26,12,30,9.80
2011,03,26,12,31,9.80
2011,03,26,12,32,9.80
2011,03,26,12,33,9.80
2011,03,26,12,34,9.80
2011,03,26,12,35,9.70
2011,03,26,12,36,9.70
2011,03,26,12,37,9.70
2011,03,26,12,38,9.70
2011,03,26,12,39,9.70
2011,03,26,12,40,9.70
2011,03,26,12,41,9.70
2011,03,26,12,42,9.60
2011,03,26,12,43,9.60
2011,03,26,12,44,9.50
2011,03,26,12,45,9.40
2011,03,26,12,46,9.40
2011,03,26,12,47,9.40
2011,03,26,12,48,9.40
2011,03,26,12,49,9.30
2011,03,26,12,50,9.30
2011,03,26,12,51,9.30
2011,03,26,12,52,9.20
2011,03,26,12,53,9.20
2011,03,26,12,54,9.20
2011,03,26,12,55,9.30
2011,03,26,12,56,9.30
2011,03,26,12,57,9.30
2011,03,26,12,58,9.40
2011,03,26,12,59,9.50
2011,03,26,13,00,9.50
2011,03,26,13,01,9.60
2011,03,26,13,02,9.60
2011,03,26,13,03,9.60
2011,03,26,13,04,9.60
2011,03,26,13,05,9.70
2011,03,26,13,06,9.70
2011,03,26,13,07,9.70
2011,03,26,13,08,9.70
2011,03,26,13,09,9.70
2011,03,26,13,10,9.60
2011,03,26,13,11,9.70
2011,03,26,13,12,9.60
2011,03,26,13,13,9.60
2011,03,26,13,14,9.60
2011,03,26,13,15,9.60
2011,03,26,13,16,9.60
2011,03,26,13,17,9.70
2011,03,26,13,18,9.70
2011,03,26,13,19,9.70
2011,03,26,13,20,9.70
2011,03,26,13,21,9.60
2011,03,26,13,22,9.60
2011,03,26,13,23,9.60
2011,03,26,13,24,9.50
2011,03,26,13,25,9.40
2011,03,26,13,26,9.40
2011,03,26,13,27,9.30
2011,03,26,13,28,9.30
2011,03,26,13,29,9.20
2011,03,26,13,30,9.20
2011,03,26,13,31,9.20
2011,03,26,13,32,9.10
2011,03,26,13,33,9.10
2011,03,26,13,34,9.00
2011,03,26,13,35,9.00
2011,03,26,13,36,8.90
2011,03,26,13,37,8.80
2011,03,26,13,38,8.80
2011,03,26,13,39,8.80
2011,03,26,13,40,8.70
2011,03,26,13,41,8.70
2011,03,26,13,42,8.60
2011,03,26,13,43,8.60
2011,03,26,13,44,8.50
2011,03,26,13,45,8.50
2011,03,26,13,46,8.40
2011,03,26,13,47,8.40
2011,03,26,13,48,8.40
2011,03,26,13,49,8.40
2011,03,26,13,50,8.40
2011,03,26,13,51,8.30
2011,03,26,13,52,8.30
2011,03,26,13,53,8.30
2011,03,26,13,54,8.30
2011,03,26,13,55,8.30
2011,03,26,13,56,8.30
2011,03,26,13,57,8.40
2011,03,26,13,58,8.40
2011,03,26,13,59,8.50
2011,03,26,14,00,8.50
2011,03,26,14,01,8.50
2011,03,26,14,02,8.60
2011,03,26,14,03,8.60
2011,03,26,14,04,8.60
2011,03,26,14,05,8.60
2011,03,26,14,06,8.70
2011,03,26,14,07,8.70
2011,03,26,14,08,8.70
2011,03,26,14,09,8.70
2011,03,26,14,10,8.70
2011,03,26,14,11,8.70
2011,03,26,14,12,8.70
2011,03,26,14,13,8.70
2011,03,26,14,14,8.70
2011,03,26,14,15,8.80
2011,03,26,14,16,8.80
2011,03,26,14,17,8.70
2011,03,26,14,18,8.70
2011,03,26,14,19,8.70
2011,03,26,14,20,8.70
2011,03,26,14,21,8.80
2011,03,26,14,22,8.80
2011,03,26,14,23,8.80
2011,03,26,14,24,8.70
2011,03,26,14,25,8.70
2011,03,26,14,26,8.80
2011,03,26,14,27,8.80
2011,03,26,14,28,8.80
2011,03,26,14,29,8.80
2011,03,26,14,30,8.80
2011,03,26,14,31,8.90
2011,03,26,14,32,8.90
2011,03,26,14,33,8.90
2011,03,26,14,34,8.90
2011,03,26,14,35,8.90
2011,03,26,14,36,8.90
2011,03,26,14,37,8.90
2011,03,26,14,38,9.00
2011,03,26,14,39,9.00
2011,03,26,14,40,9.10
2011,03,26,14,41,9.10
2011,03,26,14,42,9.10
2011,03,26,14,43,9.20
2011,03,26,14,44,9.20
2011,03,26,14,45,9.20
2011,03,26,14,46,9.20
2011,03,26,14,47,9.30
2011,03,26,14,48,9.30
2011,03,26,14,49,9.30
2011,03,26,14,50,9.40
2011,03,26,14,51,9.40
2011,03,26,14,52,9.40
2011,03,26,14,53,9.40
2011,03,26,14,54,9.50
2011,03,26,14,55,9.50
2011,03,26,14,56,9.60
2011,03,26,14,57,9.60
2011,03,26,14,58,9.60
2011,03,26,14,59,9.60
2011,03,26,15,00,9.60
2011,03,26,15,01,9.70
2011,03,26,15,02,9.70
2011,03,26,15,03,9.60
2011,03,26,15,04,9.60
2011,03,26,15,05,9.60
2011,03,26,15,06,9.60
2011,03,26,15,07,9.60
2011,03,26,15,08,9.60
2011,03,26,15,09,9.60
2011,03,26,15,10,9.60
2011,03,26,15,11,9.60
2011,03,26,15,12,9.60
2011,03,26,15,13,9.60
2011,03,26,15,14,9.60
2011,03,26,15,15,9.70
2011,03,26,15,16,9.70
2011,03,26,15,17,9.70
2011,03,26,15,18,9.80
2011,03,26,15,19,9.80
2011,03,26,15,20,9.80
2011,03,26,15,21,9.80
2011,03,26,15,22,9.80
2011,03,26,15,23,9.80
2011,03,26,15,24,9.80
2011,03,26,15,25,9.70
2011,03,26,15,26,9.70
2011,03,26,15,27,9.70
2011,03,26,15,28,9.70
2011,03,26,15,29,9.70
2011,03,26,15,30,9.70
2011,03,26,15,31,9.70
2011,03,26,15,32,9.70
2011,03,26,15,33,9.70
2011,03,26,15,34,9.70
2011,03,26,15,35,9.70
2011,03,26,15,36,9.70
2011,03,26,15,37,9.70
2011,03,26,15,38,9.80
2011,03,26,15,39,9.80
2011,03,26,15,40,9.80
2011,03,26,15,41,9.70
2011,03,26,15,42,9.70
2011,03,26,15,43,9.70
2011,03,26,15,44,9.80
2011,03,26,15,45,9.80
2011,03,26,15,46,9.80
2011,03,26,15,47,9.80
2011,03,26,15,48,9.90
2011,03,26,15,49,9.90
2011,03,26,15,50,9.90
2011,03,26,15,51,9.90
2011,03,26,15,52,9.90
2011,03,26,15,53,9.90
2011,03,26,15,54,9.80
2011,03,26,15,55,9.80
2011,03,26,15,56,9.80
2011,03,26,15,57,9.80
2011,03,26,15,58,9.80
2011,03,26,15,59,9.80
2011,03,26,16,00,9.80
2011,03,26,16,01,9.80
2011,03,26,16,02,9.90
2011,03,26,16,03,9.90
2011,03,26,16,04,9.90
2011,03,26,16,05,9.90
2011,03,26,16,06,9.90
2011,03,26,16,07,9.90
2011,03,26,16,08,9.80
2011,03,26,16,09,9.80
2011,03,26,16,10,9.70
2011,03,26,16,11,9.70
2011,03,26,16,12,9.60
2011,03,26,16,13,9.60
2011,03,26,16,14,9.60
2011,03,26,16,15,9.50
2011,03,26,16,16,9.50
2011,03,26,16,17,9.40
2011,03,26,16,18,9.40
2011,03,26,16,19,9.40
2011,03,26,16,20,9.40
2011,03,26,16,21,9.40
2011,03,26,16,22,9.30
2011,03,26,16,23,9.30
2011,03,26,16,24,9.30
2011,03,26,16,25,9.30
2011,03,26,16,26,9.30
2011,03,26,16,27,9.30
2011,03,26,16,28,9.30
2011,03,26,16,29,9.30
2011,03,26,16,30,9.30
2011,03,26,16,31,9.30
2011,03,26,16,32,9.30
2011,03,26,16,33,9.30
2011,03,26,16,34,9.30
2011,03,26,16,35,9.30
2011,03,26,16,36,9.30
2011,03,26,16,37,9.30
2011,03,26,16,38,9.20
2011,03,26,16,39,9.20
2011,03,26,16,40,9.20
2011,03,26,16,41,9.20
2011,03,26,16,42,9.30
2011,03,26,16,43,9.30
2011,03,26,16,44,9.30
2011,03,26,16,45,9.30
2011,03,26,16,46,9.30
2011,03,26,16,47,9.30
2011,03,26,16,48,9.30
2011,03,26,16,49,9.30
2011,03,26,16,50,9.30
2011,03,26,16,51,9.30
2011,03,26,16,52,9.40
2011,03,26,16,53,9.40
2011,03,26,16,54,9.40
2011,03,26,16,55,9.50
2011,03,26,16,56,9.50
2011,03,26,16,57,9.50
2011,03,26,16,58,9.60
2011,03,26,16,59,9.60
2011,03,26,17,00,9.60
2011,03,26,17,01,9.60
2011,03,26,17,02,9.60
2011,03,26,17,03,9.60
2011,03,26,17,04,9.60
2011,03,26,17,05,9.60
2011,03,26,17,06,9.60
2011,03,26,17,07,9.60
2011,03,26,17,08,9.60
2011,03,26,17,09,9.60
2011,03,26,17,10,9.60
2011,03,26,17,11,9.60
2011,03,26,17,12,9.60
2011,03,26,17,13,9.60
2011,03,26,17,14,9.60
2011,03,26,17,15,9.60
2011,03,26,17,16,9.60
2011,03,26,17,17,9.60
2011,03,26,17,18,9.60
2011,03,26,17,19,9.60
2011,03,26,17,20,9.60
2011,03,26,17,21,9.60
2011,03,26,17,22,9.60
2011,03,26,17,23,9.60
2011,03,26,17,24,9.60
2011,03,26,17,25,9.60
2011,03,26,17,26,9.60
2011,03,26,17,27,9.60
2011,03,26,17,28,9.70
2011,03,26,17,29,9.70
2011,03,26,17,30,9.70
2011,03,26,17,31,9.70
2011,03,26,17,32,9.70
2011,03,26,17,33,9.70
2011,03,26,17,34,9.70
2011,03,26,17,35,9.70
2011,03,26,17,36,9.70
2011,03,26,17,37,9.70
2011,03,26,17,38,9.70
2011,03,26,17,39,9.70
2011,03,26,17,40,9.80
2011,03,26,17,41,9.80
2011,03,26,17,42,9.80
2011,03,26,17,43,9.80
2011,03,26,17,44,9.80
2011,03,26,17,45,9.80
2011,03,26,17,46,9.80
2011,03,26,17,47,9.80
2011,03,26,17,48,9.80
2011,03,26,17,49,9.80
2011,03,26,17,50,9.70
2011,03,26,17,51,9.70
2011,03,26,17,52,9.70
2011,03,26,17,53,9.70
2011,03,26,17,54,9.70
2011,03,26,17,55,9.80
2011,03,26,17,56,9.80
2011,03,26,17,57,9.80
2011,03,26,17,58,9.80
2011,03,26,17,59,9.80
2011,03,26,18,00,9.80
2011,03,26,18,01,9.80
2011,03,26,18,02,9.90
2011,03,26,18,03,10.00
2011,03,26,18,04,10.00
2011,03,26,18,05,10.10
2011,03,26,18,06,10.10
2011,03,26,18,07,10.20